Regional Weather Roundup
Issued by NWS

Home | Current Version | Previous Version | Graphics & Text | Print | Product List | Glossary On
Versions: 1 2 3 4 5 6 7 8 9 10 11 12 13 14 15 16 17 18 19 20 21 22 23 24 25 26 27 28 29 30 31 32 33 34 35 36 37 38 39 40 41 42 43 44 45 46 47 48 49 50
000
ASUS43 KMKX 041300
RWRWI

WISCONSIN REGIONAL WEATHER ROUNDUP
NATIONAL WEATHER SERVICE MILWAUKEE/SULLIVAN WI
800 AM CDT SAT JUL 04 2015

NOTE: "FAIR" INDICATES FEW OR NO CLOUDS BELOW 12,000 FEET WITH NO
SIGNIFICANT WEATHER AND/OR OBSTRUCTIONS TO VISIBILITY.

WIZ001-002-006>008-014>016-023>028-041400-
NORTHWEST WISCONSIN

CITY           SKY/WX    TMP DP  RH WIND       PRES   REMARKS
SUPERIOR ARPT  SUNNY     62  59  89 NE7       29.97S
ASHLAND        CLOUDY    61  61 100 E3        29.98R FOG
HAYWARD        SUNNY     61  58  90 CALM      29.97S FOG
SIREN          FOG       60  60  98 CALM      29.96S VSB<1/4
CUMBERLAND     SUNNY     61  59  94 CALM      29.97R FOG
RICE LAKE      FOG       60  59  96 CALM      29.98S VSB<1/4
CHETEK         SUNNY     62  60  94 CALM      29.96S
LADYSMITH      SUNNY     60  59  94 CALM      29.99S FOG
EAU CLAIRE     NOT AVBL
MENOMONIE      SUNNY     63  60  90 CALM      29.96S
NEW RICHMOND   SUNNY     63  61  94 CALM      29.96S FOG
OSCEOLA        SUNNY     63  63 100 CALM      29.98S FOG
$$

WIZ003>005-009-010-017-018-041400-
NORTH CENTRAL WISCONSIN

CITY           SKY/WX    TMP DP  RH WIND       PRES   REMARKS
MANITOWISH WTR SUNNY     60  60 100 CALM      29.99R FOG
ARBOR VITAE    FOG       59  58  96 CALM      29.99R VSB 1/4
WOODRUFF       FOG       59  58  96 CALM      29.99R VSB 1/4
RHINELANDER    SUNNY     62  60  93 CALM      30.00S
EAGLE RIVER    MOSUNNY   57  57 100 CALM      30.00R FOG
LAND O LAKES   CLOUDY    58  58 100 CALM      30.01R FOG
PHILLIPS       SUNNY     59  58  95 CALM      29.98S
TOMAHAWK       FOG       58  57  97 CALM      29.99R VSB 3/4
MEDFORD        SUNNY     60  58  94 CALM      29.98S
MERRILL        SUNNY     58  58 100 CALM      29.99R FOG
$$

WIZ029-030-035-036-043>047-041400-
CENTRAL WISCONSIN

CITY           SKY/WX    TMP DP  RH WIND       PRES   REMARKS
WAUSAU         SUNNY     64  59  83 CALM      29.96S
MOSINEE        SUNNY     63  63 100 CALM      29.99S
MARSHFIELD     SUNNY     65  58  78 CALM      29.97S
STEVENS POINT  PTSUNNY   59  57  93 CALM      29.98S
WAUPACA        SUNNY     64  62  94 CALM      29.97S
WAUTOMA        NOT AVBL
WISC RAPIDS    SUNNY     66  58  75 CALM      29.98S
CAMP DOUGLAS   NOT AVBL
$$

WIZ011>013-019>022-031-037>040-048>050-041400-
NORTHEAST WISCONSIN

CITY           SKY/WX    TMP DP  RH WIND       PRES   REMARKS
ANTIGO         SUNNY     60  59  97 CALM      29.99S
SHAWANO        SUNNY     64  60  85 CALM      29.97R
OCONTO         SUNNY     63  62  97 CALM      29.95S
STURGEON BAY   SUNNY     66  61  82 N6        29.98S
GREEN BAY      SUNNY     67  61  81 CALM      29.96R
MANITOWOC      NOT AVBL
APPLETON       MOSUNNY   64  57  77 W9        29.96F
CLINTONVILLE   SUNNY     63  57  82 CALM      29.96S
OSHKOSH        SUNNY     68  60  75 W6        29.96S
$$

WIZ032>034-041-042-053>061-041400-
SOUTHWEST WISCONSIN

CITY           SKY/WX    TMP DP  RH WIND       PRES   REMARKS
LA CROSSE      SUNNY     65  61  87 S6        29.96S
SPARTA         SUNNY     60  57  89 CALM      29.98S
VIROQUA        SUNNY     63  62  97 SW5       29.99R
BOSCOBEL       MOSUNNY   60  59  96 CALM      29.99S FOG
PRAIRIE DU CHI SUNNY     59  57  92 CALM      29.99S
PLATTEVILLE    SUNNY     62  58  88 CALM      30.00S
$$

WIZ056-057-062-063-064-067-068-041400-
SOUTH CENTRAL WISCONSIN

CITY           SKY/WX    TMP DP  RH WIND       PRES   REMARKS
REEDSBURG      SUNNY     59  58  96 CALM      29.97F
BARABOO/DELLS  SUNNY     63  58  85 CALM      29.98S
LONE ROCK      CLOUDY    59  57  94 CALM      29.99S FOG
MINERAL POINT  SUNNY     63  59  88 W5        30.00R
MADISON        SUNNY     66  59  78 CALM      29.98R
MIDDLETON      SUNNY     65  59  82 CALM      29.99S
WATERTOWN      SUNNY     60  60 100 CALM      29.98S
MONROE         SUNNY     64  55  72 W7        29.99S
JANESVILLE     SUNNY     63  59  88 CALM      29.98S
$$

WIZ051-052-058>065-066-070>072-041400-
SOUTHEAST WISCONSIN

CITY           SKY/WX    TMP DP  RH WIND       PRES   REMARKS
MILWAUKEE      MOSUNNY   68  56  65 W8        29.97S
WAUKESHA       SUNNY     63  57  82 CALM      29.99S
MILWAUKEE/TIMM SUNNY     66  55  68 W7        29.98S
RACINE         SUNNY     67  56  67 W6        29.99S
BURLINGTON     SUNNY     59  58  98 CALM      29.98S
KENOSHA        SUNNY     66  58  75 W5        29.98S
FOND DU LAC    MOSUNNY   66  59  78 W3        29.97S
SHEBOYGAN      MOSUNNY   68  59  73 W6        29.96S
WEST BEND      SUNNY     64  57  77 W3        29.97S
JUNEAU         SUNNY     60  57  89 CALM      29.99S
$$

LSZ147-162-041400-
LAKE SUPERIOR

STATION/POSITION TIME  TEMP    WIND        PRES    WAVE
                       AIR SEA DIR/SP/G            HT/PER
                 (UTC) (F)     (DEG/KT/KT) (MB)    (FT/S)
W MID LAKE BUOY  1150   42 38   40/  4/  6 1015.4R   0
DEVILS ISLAND    1200   58      40/  7/  8 1015.1R
SAXON HARBOR     1240   60     200/  2/  6 1014.9R
$$

LMZ867-665-643>646-041400-
LAKE MICHIGAN

STATION/POSITION TIME  TEMP    WIND        PRES    WAVE
                       AIR SEA DIR/SP/G            HT/PER
                 (UTC) (F)     (DEG/KT/KT) (MB)    (FT/S)
CHAMBERS ISLAND  1200   64      20/  9/ 11 1014.2R
N MID LAKE BUOY  1150   49 43  340/  2/  4 1014.1R   1/ 4
NORTHPORT PIER   1200   63     350/  2/  2 1014.2R
SISTER BAY       1244   70     130/  4/  7   N/A
ALGOMA LAKESHORE 1210          310/  6/  7   N/A
KEWAUNEE LAKESHO 1200   63     290/  5/  7 1013.4R
SHEBOYGAN LAKESH 1200   65     260/ 10/ 11 1014.4R
PORT WASHINGTON  1200   65     290/  6/  9 1015.2R
ATWATER BUOY     1200   64 59  270/ 10/ 12 1015.9R
MILWAUKEE LAKESH 1200   65     290/  9/ 12   N/A
KENOSHA   LAKESH 1200   65     280/  8/ 11 1014.9R
$$

TC  - TEMPERATURE IN CELSIUS
VSB - VISIBILITY IN STATUTE MILES
WCI - WIND CHILL INDEX
HX  - HEAT INDEX



USA.gov is the U.S. government's official web portal to all federal, state and local government web resources and services.